{"data":{"norad_id":60723,"intl_designator":"2024-152D","name":"STARLINK-11272 [DTC]","alt_names":[],"object_type":"PAYLOAD","status":"ACTIVE","operator":null,"country":"US","launch_date":"2024-08-28","launch_site_code":"AFETR","launch_vehicle":null,"mission":null,"orbit_class":"UNKNOWN","rcs_meters":null,"size_class":null,"mass_kg":null,"dimensions":null,"purposes":["comms"],"wikipedia_slug":null,"has_3d_model":false,"image_url":null,"decayed_at":null,"tle_current":{"epoch":"2026-05-25T03:43:37.291008Z","epoch_age_seconds":58307,"freshness":"FRESH","line1":"1 60723U 24152D   26145.15529272  .00001172  00000+0  14536-4 0  9996","line2":"2 60723  53.1582  99.3985 0000934  73.3756 286.7364 15.69698546100842","mean_motion":15.69698546,"eccentricity":9.34e-5,"inclination_deg":53.1582,"raan_deg":99.3985,"arg_perigee_deg":73.3756,"mean_anomaly_deg":286.7364,"bstar":1.4536e-5,"rev_number":10084,"period_min":91.737359614016,"perigee_km":359.13020804706,"apogee_km":360.38884711841,"semimajor_km":6737.8965275827,"source":"CELESTRAK","updated_at":"2026-05-25T13:38:19.306189Z"}}}